Theta_e
305 303 302 300 298 296 295 295 295 294 295 294 294 293 293 294 295 296 298 297 298 299 297 297 298 299 298 297 298 297 297 296 297 296 295 296 296 295 297 301 302 301 302
302 302 302 299 299 296 295 294 296 295 295 295 294 294 293 294 295 296 297 297 298 298 297 297 296 297 296 296 295 295 294 296 296 293 292 289 292 294 297 298 299 298 302
302 302 301 300 298 297 296 295 295 296 296 296 295 294 294 294 294 295 295 296 298 298 297 296 296 295 295 294 294 294 293 292 294 295 293 288 287 293 294 296 296 297 299
304 303 302 300 297 298 297 296 296 296 296 295 295 294 293 292 293 293 294 295 296 295 296 296 295 294 294 294 294 297 294 293 292 293 297 295 294 291 290 295 296 298 298
304 303 302 300 299 298 297 296 295 296 296 295 295 294 292 293 294 293 293 293 294 295 296 295 295 294 294 294 294 294 294 293 292 292 292 293 294 293 292 290 294 298 299
303 304 303 301 298 297 296 295 295 296 295 295 294 294 293 293 292 292 292 293 293 294 295 296 295 294 294 294 295 294 293 293 293 294 294 293 293 292 292 293 294 294 296
302 302 300 298 297 295 296 296 295 295 295 295 295 294 294 293 293 292 292 292 292 293 293 294 294 294 294 295 294 293 293 293 293 292 294 294 295 297 298 296 293 292 296
302 300 300 299 297 296 296 296 295 295 294 295 295 294 294 294 293 293 293 292 292 293 294 294 294 295 295 295 294 293 294 293 293 293 293 295 296 299 299 296 295 291 294
301 301 300 299 298 297 296 297 296 296 295 295 295 293 293 293 293 293 293 292 292 295 294 294 294 295 295 295 294 293 293 293 293 294 294 295 297 298 298 299 298 295 291
299 300 299 299 298 298 297 297 297 296 296 295 295 294 292 292 292 292 292 292 293 293 294 293 294 294 294 294 293 293 293 293 294 295 295 296 297 297 299 299 300 299 296
300 300 300 300 298 297 297 297 296 296 296 296 295 293 292 291 291 291 292 292 292 292 293 294 294 294 293 293 292 292 293 292 293 294 295 296 297 297 298 300 300 299 298
299 299 298 297 297 296 296 296 296 296 297 297 295 294 292 291 290 291 291 291 291 292 293 293 293 293 293 293 292 292 293 293 293 294 294 295 298 297 299 300 300 299 299
298 297 295 297 298 297 296 296 296 297 297 296 295 293 291 291 290 290 290 291 291 291 292 293 292 293 293 293 293 293 294 294 294 294 294 295 296 296 298 300 299 300 302
300 298 297 297 298 298 297 297 297 297 297 296 294 292 291 291 290 290 291 291 291 291 291 292 292 293 293 294 294 294 293 294 295 295 296 297 297 297 299 301 301 302 304
298 298 298 297 297 297 297 297 297 296 296 295 293 292 291 290 291 291 291 291 291 291 291 291 292 292 293 295 294 295 295 294 295 296 297 298 300 305 305 302 302 302 303
298 300 300 298 297 297 297 297 295 295 295 294 292 292 291 290 290 290 290 290 290 290 290 291 291 291 294 300 302 302 297 296 296 296 297 297 301 302 306 306 307 306 306
297 299 300 299 298 297 298 295 294 294 294 292 292 291 291 291 290 290 290 289 289 289 289 289 290 290 290 300 303 303 298 298 297 298 296 296 299 302 301 304 306 308 310
298 299 300 300 299 298 297 295 294 293 292 291 291 291 290 290 290 289 288 288 288 288 289 289 290 289 291 301 302 302 294 293 294 295 296 296 298 300 300 300 303 304 306
299 301 301 301 297 296 295 294 293 292 291 290 290 290 290 289 289 288 288 288 288 288 288 289 289 288 289 299 302 299 293 293 293 295 296 297 298 302 304 302 302 304 306
302 299 298 296 295 294 294 292 291 291 290 290 290 290 289 289 288 288 288 288 288 289 290 290 289 292 291 297 300 299 294 293 295 297 296 300 299 303 305 303 303 303 305
297 297 297 296 295 293 293 291 290 290 291 291 291 290 289 289 289 288 288 288 288 288 287 288 288 289 291 291 299 300 295 295 295 295 295 296 301 303 305 306 303 304 308
296 296 293 292 292 293 293 290 290 290 291 291 291 289 289 291 291 288 288 287 287 286 286 286 288 290 290 296 298 300 300 300 295 295 295 295 301 303 305 303 306 307 307
294 294 292 290 290 291 292 289 289 291 291 290 289 288 289 289 289 287 287 286 286 286 286 287 288 289 290 290 297 299 300 301 297 297 298 300 302 304 302 303 305 305 302
292 292 291 290 289 290 291 291 291 292 291 289 288 288 288 288 288 288 288 286 286 286 287 288 288 288 289 289 291 293 295 299 299 297 295 300 301 303 301 300 300 301 301
292 293 292 291 290 291 291 292 292 292 290 288 288 288 288 290 289 288 287 287 287 288 287 287 288 288 289 292 298 299 298 298 296 297 295 296 296 297 298 297 298 300 300
292 291 291 291 291 292 292 292 293 292 291 289 288 288 288 288 288 287 288 294 296 297 298 298 296 293 298 300 300 301 301 300 299 294 292 292 294 295 297 295 296 298 299
Wind_Speed
18 10 10 9 9 9 9 9 9 8 7 3 3 2 3 2 1 2 3 3 3 3 1 2 2 1 1 2 2 1 1 3 2 2 4 4 3 5 4 9 10 12 11
13 13 14 13 14 14 12 10 10 9 7 4 3 3 3 2 2 2 3 4 4 4 3 2 3 3 2 2 3 1 1 2 1 2 2 5 6 3 7 3 5 12 7
22 18 18 18 16 17 15 13 12 12 8 7 4 3 3 2 1 1 2 3 2 3 3 3 3 3 2 2 3 3 3 2 3 0 1 5 4 14 2 6 6 7 9
21 18 20 18 19 17 14 13 12 12 9 9 7 6 5 4 4 3 3 2 2 3 3 2 2 3 1 2 2 2 2 2 4 2 3 4 5 7 15 10 9 9 9
20 22 23 23 21 17 15 13 13 13 9 10 9 6 5 4 3 2 3 3 3 3 3 2 2 3 1 3 4 3 3 2 2 3 2 3 4 4 4 14 12 11 9
20 19 18 17 17 14 13 12 14 13 11 11 9 10 9 7 4 4 3 3 2 3 4 3 2 3 3 4 4 4 5 5 4 3 4 4 5 7 4 9 12 14 16
16 15 18 18 17 18 16 14 15 14 13 13 11 10 9 8 8 7 5 4 3 3 5 3 4 3 5 6 5 5 6 6 4 6 5 5 6 6 7 8 11 15 14
14 17 21 20 20 20 18 17 17 16 14 13 12 9 9 6 5 6 5 4 4 5 5 6 6 7 7 6 6 4 5 6 6 8 6 7 7 7 7 7 8 16 14
15 18 16 18 18 19 21 20 17 15 14 14 11 9 8 8 7 7 5 5 5 4 6 6 6 7 6 6 6 5 7 6 6 7 8 8 8 7 7 7 8 13 16
9 11 14 17 17 16 16 17 17 18 15 14 11 9 9 8 7 6 7 7 6 6 6 6 6 6 6 7 7 5 7 7 6 7 8 10 8 8 8 7 10 10 14
14 13 13 14 14 14 15 16 16 16 14 14 11 9 8 8 7 7 7 7 5 6 6 6 6 7 7 7 6 7 8 8 9 9 10 12 12 9 9 9 11 12 11
8 9 10 12 13 15 15 16 16 16 15 14 12 11 8 8 7 7 7 6 6 5 6 6 6 7 7 7 7 8 9 9 9 11 9 12 9 12 12 10 12 13 15
8 7 9 14 15 16 15 16 16 16 14 13 12 10 10 8 8 7 7 6 6 6 6 6 7 7 7 7 7 8 10 10 10 10 10 12 12 12 11 12 13 14 14
15 13 9 14 13 14 15 15 15 14 14 13 12 12 11 9 8 7 7 6 6 6 7 6 6 6 7 7 7 8 9 9 10 10 10 12 13 14 13 12 16 17 13
11 14 15 13 13 13 13 13 13 14 13 13 12 12 11 8 7 7 7 6 6 6 5 5 6 6 6 6 7 8 8 9 9 10 10 11 15 25 23 13 16 19 17
16 17 16 14 15 17 16 14 14 14 14 14 13 11 10 8 8 7 7 6 5 5 4 5 6 7 6 16 21 16 10 7 8 10 9 10 18 18 26 27 32 27 15
17 15 17 18 17 17 17 16 15 14 14 13 12 11 10 8 8 7 6 5 5 3 5 6 6 7 7 18 20 21 9 7 7 9 10 11 10 18 15 23 30 26 27
16 16 16 15 14 14 14 12 14 15 14 12 12 11 10 8 7 7 6 4 4 5 5 6 7 6 8 18 19 19 5 7 8 10 10 11 12 14 19 18 18 19 16
18 19 18 15 12 16 15 15 14 14 14 12 12 11 9 8 7 7 7 5 4 4 5 6 7 7 7 16 17 15 6 6 8 10 9 8 13 21 29 20 19 18 16
17 12 12 9 14 13 16 16 14 14 14 13 12 10 9 8 8 7 7 5 4 4 4 6 6 10 6 13 14 17 7 7 8 8 6 15 18 27 28 20 17 18 14
13 8 12 15 14 15 16 15 14 14 12 11 11 8 8 8 8 7 5 4 4 4 6 6 6 6 6 7 17 19 8 7 8 8 8 7 24 28 29 27 15 14 20
10 10 11 11 11 14 15 14 13 10 12 11 9 8 7 6 6 7 4 4 4 5 6 5 6 4 5 12 12 18 18 17 7 9 8 9 24 29 26 24 26 29 22
7 8 13 13 9 10 13 14 9 12 11 9 8 7 7 6 6 6 5 3 4 4 5 4 4 4 4 5 14 16 17 18 11 9 14 26 24 24 17 25 27 22 10
6 8 12 12 10 9 10 12 12 10 11 8 7 6 7 6 4 3 3 3 4 4 4 4 4 4 5 4 5 6 7 14 11 11 11 16 18 16 16 15 14 10 10
5 3 10 10 9 8 10 11 11 10 9 7 6 6 5 5 4 3 4 4 4 5 4 4 4 4 5 6 13 13 9 7 9 14 7 8 8 8 8 12 11 10 10
3 3 7 10 9 10 10 9 10 10 10 7 5 5 4 4 3 3 3 4 7 3 6 11 8 4 12 17 19 19 17 11 17 6 6 8 8 9 9 12 12 12 13
Wind_Direction
219 203 194 173 169 173 168 172 164 173 151 149 140 123 169 175 205 203 209 212 210 234 260 299 320 305 271 265 263 264 289 303 289 312 302 252 157 297 343 338 329 324 318
213 200 195 185 181 178 179 174 177 170 177 157 164 150 156 189 186 203 220 234 230 239 259 239 272 252 269 277 292 238 275 262 283 283 310 339 320 34 316 288 305 308 310
211 202 197 194 183 183 180 176 175 174 177 168 129 96 74 55 79 222 246 244 233 254 276 265 231 265 202 265 280 278 254 263 294 215 128 339 310 321 320 302 302 292 299
216 204 199 196 190 190 179 175 173 175 176 163 151 153 167 167 210 187 207 249 252 273 271 232 250 265 270 293 272 268 267 177 288 332 220 209 227 298 312 310 303 293 288
208 199 197 195 191 180 181 179 172 175 172 170 165 162 164 188 189 189 210 234 269 261 241 248 309 298 287 270 273 292 278 224 221 229 265 226 240 235 241 292 307 296 288
204 202 196 185 188 179 176 172 175 183 174 172 172 170 175 188 184 212 208 229 248 252 246 271 254 273 258 259 253 265 260 262 238 238 235 233 273 287 263 282 297 298 297
193 184 178 185 182 180 178 177 178 184 179 177 178 176 183 184 195 204 202 199 216 228 249 230 252 252 252 258 250 265 268 262 240 242 252 228 230 248 254 272 291 297 291
190 187 186 185 183 182 179 182 182 183 179 178 181 179 181 185 196 202 200 209 205 218 231 237 248 254 258 257 264 255 257 249 245 249 239 259 255 242 242 252 293 293 281
194 190 183 183 180 183 186 183 179 183 179 180 178 180 184 185 197 209 199 203 213 228 235 235 255 266 264 257 261 253 258 252 254 253 249 247 254 240 237 236 279 272 284
200 186 180 180 184 185 181 181 183 183 179 176 180 184 184 188 194 187 195 205 224 225 240 260 265 272 268 262 261 264 260 253 252 255 246 254 256 250 241 249 285 268 273
201 187 183 183 177 171 177 181 182 181 178 180 180 176 184 189 183 187 200 207 213 231 244 254 258 258 261 264 264 261 266 253 260 260 257 258 258 249 249 261 278 270 277
201 182 175 162 171 177 176 183 181 182 183 180 179 185 179 180 183 194 204 204 222 236 243 252 257 263 265 262 256 261 277 273 268 262 262 264 262 257 265 268 278 284 279
192 183 164 181 183 183 180 182 183 184 178 175 177 179 182 177 191 195 199 206 225 245 258 251 260 268 268 266 262 256 267 268 263 263 261 265 264 268 270 269 285 282 274
200 193 192 198 190 187 183 182 182 180 176 177 177 180 181 183 185 191 195 214 226 241 252 263 272 270 271 273 273 274 265 262 266 258 255 260 266 270 276 284 297 290 291
195 195 201 199 189 184 183 183 180 176 174 176 176 182 178 178 178 185 204 221 231 245 260 269 281 281 285 287 283 269 257 263 265 265 262 266 268 281 297 304 305 303 298
216 208 204 193 191 188 185 179 177 178 172 175 179 173 172 171 183 192 206 221 246 259 253 273 273 284 289 295 303 304 293 267 267 280 282 273 290 289 298 307 306 301 302
215 206 202 199 195 192 178 179 172 164 172 172 170 170 169 176 184 193 198 216 220 217 262 272 275 276 275 293 304 311 309 313 305 307 303 297 295 305 301 306 308 309 316
217 213 206 201 195 180 176 163 163 165 167 168 167 167 168 172 180 182 193 184 199 233 252 272 270 268 279 296 309 313 335 313 301 297 291 290 292 302 311 306 309 309 306
213 207 201 192 165 166 163 157 160 160 162 166 167 168 164 168 171 181 186 198 212 245 259 251 265 266 274 297 309 315 323 291 284 286 288 281 304 307 313 315 310 307 302
260 200 178 149 153 161 155 151 159 161 168 165 164 161 161 162 171 180 192 206 207 236 251 268 259 274 281 298 306 318 309 294 299 296 278 301 311 314 313 312 313 315 316
230 155 151 161 157 147 146 151 154 169 159 146 148 151 159 164 173 182 188 207 235 251 261 259 276 276 282 280 303 313 307 297 304 307 304 298 307 310 313 319 315 306 314
147 138 124 125 135 145 141 142 154 141 139 145 148 155 158 168 170 188 213 221 228 248 262 266 281 267 268 289 298 305 317 309 307 299 297 291 305 314 322 324 314 324 327
111 114 123 117 122 132 136 138 145 140 141 136 152 158 159 173 181 188 222 237 234 232 256 254 255 273 274 266 285 300 305 297 301 296 308 309 308 311 318 320 318 326 313
327 109 115 124 127 123 133 136 142 145 144 146 153 158 163 179 188 200 206 223 241 251 246 251 261 277 285 269 264 273 286 287 290 300 299 305 308 299 313 328 316 320 316
327 93 124 128 135 135 132 141 145 142 144 145 151 159 165 174 187 213 216 218 236 211 226 234 245 263 279 278 290 302 291 299 311 322 314 309 312 314 316 327 325 320 317
215 123 127 137 153 148 137 138 145 149 145 144 150 166 158 172 178 198 280 262 259 262 259 285 292 278 300 310 312 317 314 312 324 329 319 309 309 322 324 329 323 323 319